{"data":{"norad_id":55430,"epoch":"2026-05-25T01:59:34.565280Z","epoch_age_seconds":67427,"freshness":"FRESH","line1":"1 55430U 23014AR  26145.08303895  .00003747  00000+0  32141-3 0  9995","line2":"2 55430  69.9994 271.7573 0002932 269.3854  90.6969 14.98359866182515","mean_motion":14.98359866,"eccentricity":0.0002932,"inclination_deg":69.9994,"raan_deg":271.7573,"arg_perigee_deg":269.3854,"mean_anomaly_deg":90.6969,"bstar":0.00032141,"rev_number":18251,"period_min":96.105083476655,"perigee_km":569.92576486051,"apogee_km":574.00130381385,"semimajor_km":6950.1005343372,"source":"CELESTRAK","updated_at":"2026-05-25T13:38:17.799910Z"}}